SHT4YL EGLL-EGAC

Flight info

Callsign SHT4YL
Flight time 1h 0m
Altitude 36000
Route ULTIB T420 TNT UL28 RODOL UM65 TENSO L603 BELOX DCT REMSI DCT NINEB M148 MAGEE
Aircraft A320/M-SDE3FGHIJ1RWXY/S

Departure

Time 2026-04-21 06:30
Airport London Heathrow Airport (EGLL)

Arrival

Time 2026-04-21 07:31
Airport George Best Belfast City Airport (EGAC)
Time Latitude Longitude Altitude Speed Heading
2026-04-21 06:00 51.47316 -0.48580 85 ft 0 kts 268°
2026-04-21 06:02 51.47316 -0.48574 85 ft 0 kts 268°
2026-04-21 06:02 51.47316 -0.48580 85 ft 0 kts 268°
2026-04-21 06:03 51.47316 -0.48574 85 ft 0 kts 269°
2026-04-21 06:03 51.47316 -0.48580 85 ft 0 kts 268°
2026-04-21 06:23 51.47317 -0.48551 87 ft 4 kts 262°
2026-04-21 06:23 51.47323 -0.48509 90 ft 4 kts 245°
2026-04-21 06:23 51.47338 -0.48479 89 ft 4 kts 191°
2026-04-21 06:23 51.47348 -0.48477 89 ft 1 kts 178°
2026-04-21 06:27 51.47340 -0.48477 89 ft 3 kts 178°
2026-04-21 06:27 51.47310 -0.48475 86 ft 6 kts 178°
2026-04-21 06:27 51.47257 -0.48473 85 ft 9 kts 178°
2026-04-21 06:28 51.47182 -0.48470 87 ft 12 kts 178°
2026-04-21 06:28 51.47087 -0.48468 89 ft 16 kts 179°
2026-04-21 06:28 51.46964 -0.48471 86 ft 19 kts 181°
2026-04-21 06:28 51.46863 -0.48470 86 ft 15 kts 179°
2026-04-21 06:29 51.46747 -0.48467 85 ft 18 kts 179°
2026-04-21 06:29 51.46613 -0.48466 89 ft 20 kts 181°
2026-04-21 06:29 51.46498 -0.48465 87 ft 13 kts 153°
2026-04-21 06:29 51.46479 -0.48332 87 ft 14 kts 89°
2026-04-21 06:30 51.46484 -0.48023 86 ft 58 kts 88°
2026-04-21 06:30 51.46485 -0.47048 88 ft 119 kts 88°
2026-04-21 06:30 51.46492 -0.45434 315 ft 146 kts 90°
2026-04-21 06:30 51.46456 -0.43825 1010 ft 146 kts 89°
2026-04-21 06:31 51.46456 -0.42197 1728 ft 142 kts 83°
2026-04-21 06:31 51.46786 -0.40672 2203 ft 156 kts 57°
2026-04-21 06:31 51.47554 -0.39246 2527 ft 182 kts 51°
2026-04-21 06:31 51.48437 -0.37605 2970 ft 206 kts 51°
2026-04-21 06:32 51.49419 -0.35747 3504 ft 229 kts 51°
2026-04-21 06:32 51.50471 -0.33741 4336 ft 239 kts 51°
2026-04-21 06:32 51.51553 -0.31666 5329 ft 244 kts 51°
2026-04-21 06:32 51.52452 -0.29333 5884 ft 249 kts 70°
2026-04-21 06:33 51.53012 -0.26699 6383 ft 249 kts 71°
2026-04-21 06:33 51.53820 -0.24238 6880 ft 252 kts 50°
2026-04-21 06:33 51.55262 -0.22607 7354 ft 260 kts 22°
2026-04-21 06:33 51.57072 -0.22326 7835 ft 270 kts 352°
2026-04-21 06:34 51.58904 -0.23112 8334 ft 274 kts 349°
2026-04-21 06:34 51.60770 -0.23765 8914 ft 275 kts 350°
2026-04-21 06:34 51.61991 -0.24347 9242 ft 278 kts 341°
2026-04-21 06:34 51.64294 -0.26248 9923 ft 282 kts 333°
2026-04-21 06:35 51.65449 -0.27309 10273 ft 284 kts 332°
2026-04-21 06:35 51.67174 -0.28943 10749 ft 295 kts 332°
2026-04-21 06:35 51.69585 -0.31273 11382 ft 314 kts 331°
2026-04-21 06:35 51.71478 -0.33113 11864 ft 320 kts 331°
2026-04-21 06:36 51.72774 -0.34376 12195 ft 322 kts 331°
2026-04-21 06:36 51.74676 -0.36233 12842 ft 326 kts 331°
2026-04-21 06:36 51.76624 -0.38133 13641 ft 329 kts 331°
2026-04-21 06:36 51.78601 -0.40050 14326 ft 332 kts 331°
2026-04-21 06:37 51.80591 -0.41976 15037 ft 335 kts 331°
2026-04-21 06:37 51.82601 -0.43920 15751 ft 338 kts 330°
2026-04-21 06:37 51.84633 -0.45886 16456 ft 340 kts 331°
2026-04-21 06:37 51.86669 -0.47855 17161 ft 343 kts 330°
2026-04-21 06:38 51.88724 -0.49847 17866 ft 346 kts 330°
2026-04-21 06:38 51.90796 -0.51863 18581 ft 349 kts 330°
2026-04-21 06:38 51.92880 -0.53898 19214 ft 351 kts 329°
2026-04-21 06:38 51.94981 -0.55953 19894 ft 353 kts 329°
2026-04-21 06:39 51.97094 -0.58022 20547 ft 355 kts 329°
2026-04-21 06:39 51.99215 -0.60096 21200 ft 357 kts 328°
2026-04-21 06:39 52.01359 -0.62193 21863 ft 359 kts 328°
2026-04-21 06:39 52.03475 -0.64265 22494 ft 361 kts 328°
2026-04-21 06:40 52.05655 -0.66401 23149 ft 363 kts 328°
2026-04-21 06:40 52.07821 -0.68524 23799 ft 365 kts 328°
2026-04-21 06:40 52.09997 -0.70664 24352 ft 366 kts 328°
2026-04-21 06:40 52.12160 -0.72792 24875 ft 368 kts 327°
2026-04-21 06:41 52.14357 -0.74956 25388 ft 370 kts 327°
2026-04-21 06:41 52.16568 -0.77140 25877 ft 372 kts 327°
2026-04-21 06:41 52.18785 -0.79335 26369 ft 375 kts 327°
2026-04-21 06:41 52.21017 -0.81550 26855 ft 377 kts 327°
2026-04-21 06:42 52.23267 -0.83780 27329 ft 379 kts 327°
2026-04-21 06:42 52.25531 -0.86021 27814 ft 381 kts 326°
2026-04-21 06:42 52.27801 -0.88271 28251 ft 383 kts 326°
2026-04-21 06:42 52.30087 -0.90543 28707 ft 385 kts 326°
2026-04-21 06:43 52.32386 -0.92836 29159 ft 387 kts 326°
2026-04-21 06:43 52.34690 -0.95139 29595 ft 389 kts 326°
2026-04-21 06:43 52.37004 -0.97453 30041 ft 391 kts 326°
2026-04-21 06:43 52.39333 -0.99779 30474 ft 393 kts 326°
2026-04-21 06:44 52.41678 -1.02122 30830 ft 396 kts 326°
2026-04-21 06:44 52.44037 -1.04482 31152 ft 399 kts 326°
2026-04-21 06:44 52.46420 -1.06867 31487 ft 402 kts 326°
2026-04-21 06:44 52.48818 -1.09268 31810 ft 405 kts 326°
2026-04-21 06:45 52.51225 -1.11680 32258 ft 405 kts 326°
2026-04-21 06:45 52.53623 -1.14084 32724 ft 405 kts 326°
2026-04-21 06:45 52.55994 -1.16473 33171 ft 404 kts 326°
2026-04-21 06:45 52.58398 -1.18906 33638 ft 404 kts 326°
2026-04-21 06:46 52.60792 -1.21331 34096 ft 404 kts 326°
2026-04-21 06:46 52.63185 -1.23750 34506 ft 404 kts 326°
2026-04-21 06:46 52.65590 -1.26184 34849 ft 405 kts 326°
2026-04-21 06:46 52.67989 -1.28619 35166 ft 406 kts 326°
2026-04-21 06:47 52.70411 -1.31077 35474 ft 408 kts 326°
2026-04-21 06:47 52.72829 -1.33532 35764 ft 409 kts 326°
2026-04-21 06:47 52.75259 -1.36004 36102 ft 411 kts 326°
2026-04-21 06:47 52.77700 -1.38493 36329 ft 413 kts 327°
2026-04-21 06:48 52.80128 -1.40976 36387 ft 409 kts 326°
2026-04-21 06:48 52.84951 -1.45915 36373 ft 406 kts 326°
2026-04-21 06:49 52.89727 -1.50818 36385 ft 406 kts 327°
2026-04-21 06:49 52.94526 -1.55747 36378 ft 406 kts 327°
2026-04-21 06:50 52.99338 -1.60709 36382 ft 407 kts 326°
2026-04-21 06:50 53.04143 -1.65689 36397 ft 407 kts 326°
2026-04-21 06:51 53.08959 -1.70684 36405 ft 408 kts 326°
2026-04-21 06:51 53.13771 -1.75692 36406 ft 408 kts 326°
2026-04-21 06:52 53.18590 -1.80723 36415 ft 409 kts 326°
2026-04-21 06:52 53.23411 -1.85774 36415 ft 409 kts 326°
2026-04-21 06:53 53.28306 -1.90628 36403 ft 410 kts 329°
2026-04-21 06:53 53.33302 -1.95259 36412 ft 410 kts 330°
2026-04-21 06:54 53.38304 -1.99920 36411 ft 411 kts 329°
2026-04-21 06:54 53.43251 -2.04619 36410 ft 412 kts 329°
2026-04-21 06:55 53.48227 -2.09387 36422 ft 412 kts 329°
2026-04-21 06:55 53.53212 -2.14167 36410 ft 413 kts 329°
2026-04-21 06:56 53.58000 -2.19474 36418 ft 412 kts 316°
2026-04-21 06:56 53.61444 -2.27088 36413 ft 411 kts 296°
2026-04-21 06:57 53.63575 -2.36031 36416 ft 412 kts 291°
2026-04-21 06:57 53.65636 -2.45033 36428 ft 412 kts 291°
2026-04-21 06:58 53.67699 -2.54066 36434 ft 413 kts 291°
2026-04-21 06:58 53.69752 -2.63100 36442 ft 413 kts 291°
2026-04-21 06:59 53.71796 -2.72179 36445 ft 413 kts 291°
2026-04-21 06:59 53.73838 -2.81263 36448 ft 413 kts 291°
2026-04-21 07:00 53.75862 -2.90286 36449 ft 413 kts 291°
2026-04-21 07:00 53.77892 -2.99389 36446 ft 413 kts 291°
2026-04-21 07:01 53.79913 -3.08488 36446 ft 413 kts 290°
2026-04-21 07:01 53.82932 -3.22171 36445 ft 413 kts 290°
2026-04-21 07:02 53.84936 -3.31289 36449 ft 413 kts 290°
2026-04-21 07:02 53.85938 -3.35862 36345 ft 418 kts 290°
2026-04-21 07:02 53.86948 -3.40488 36093 ft 419 kts 290°
2026-04-21 07:03 53.87954 -3.45118 35850 ft 417 kts 290°
2026-04-21 07:03 53.88952 -3.49724 35613 ft 415 kts 290°
2026-04-21 07:03 53.89944 -3.54308 35371 ft 412 kts 290°
2026-04-21 07:03 53.90928 -3.58852 35137 ft 410 kts 290°
2026-04-21 07:04 53.91905 -3.63369 34890 ft 406 kts 290°
2026-04-21 07:04 53.92870 -3.67846 34454 ft 403 kts 290°
2026-04-21 07:04 53.93831 -3.72327 33952 ft 400 kts 290°
2026-04-21 07:04 53.94761 -3.76675 33519 ft 396 kts 290°
2026-04-21 07:05 53.95707 -3.81045 33071 ft 392 kts 292°
2026-04-21 07:05 53.96911 -3.85172 32635 ft 389 kts 300°
2026-04-21 07:05 53.98266 -3.89117 32219 ft 385 kts 299°
2026-04-21 07:05 53.99600 -3.93040 31797 ft 382 kts 299°
2026-04-21 07:06 54.00915 -3.96938 31388 ft 378 kts 298°
2026-04-21 07:06 54.02214 -4.00812 30984 ft 375 kts 298°
2026-04-21 07:06 54.03502 -4.04666 30596 ft 372 kts 298°
2026-04-21 07:06 54.04777 -4.08489 30156 ft 369 kts 298°
2026-04-21 07:07 54.06041 -4.12264 29774 ft 365 kts 300°
2026-04-21 07:07 54.07467 -4.15823 29417 ft 362 kts 304°
2026-04-21 07:07 54.08913 -4.19289 29064 ft 359 kts 304°
2026-04-21 07:07 54.10349 -4.22743 28703 ft 356 kts 304°
2026-04-21 07:08 54.11754 -4.26133 28350 ft 353 kts 304°
2026-04-21 07:08 54.13163 -4.29540 27999 ft 349 kts 304°
2026-04-21 07:08 54.14556 -4.32913 27644 ft 346 kts 304°
2026-04-21 07:08 54.15935 -4.36263 27289 ft 343 kts 303°
2026-04-21 07:09 54.17298 -4.39577 26938 ft 340 kts 304°
2026-04-21 07:09 54.18650 -4.42866 26574 ft 337 kts 303°
2026-04-21 07:09 54.20010 -4.46176 26212 ft 335 kts 303°
2026-04-21 07:09 54.21343 -4.49420 25857 ft 333 kts 303°
2026-04-21 07:10 54.22651 -4.52605 25495 ft 331 kts 304°
2026-04-21 07:10 54.23973 -4.55822 25125 ft 330 kts 304°
2026-04-21 07:10 54.25286 -4.59027 24754 ft 329 kts 304°
2026-04-21 07:10 54.26600 -4.62245 24377 ft 329 kts 304°
2026-04-21 07:11 54.27905 -4.65449 24005 ft 329 kts 304°
2026-04-21 07:11 54.29211 -4.68666 23585 ft 328 kts 304°
2026-04-21 07:11 54.30510 -4.71872 23212 ft 327 kts 304°
2026-04-21 07:11 54.31808 -4.75077 22848 ft 326 kts 304°
2026-04-21 07:12 54.33096 -4.78258 22472 ft 325 kts 304°
2026-04-21 07:12 54.34382 -4.81435 22110 ft 325 kts 304°
2026-04-21 07:12 54.35670 -4.84619 21739 ft 324 kts 304°
2026-04-21 07:12 54.36956 -4.87805 21371 ft 324 kts 304°
2026-04-21 07:13 54.38220 -4.90938 21008 ft 323 kts 304°
2026-04-21 07:13 54.39501 -4.94110 20643 ft 323 kts 304°
2026-04-21 07:13 54.40758 -4.97301 20282 ft 324 kts 300°
2026-04-21 07:13 54.41525 -5.00995 19871 ft 336 kts 276°
2026-04-21 07:14 54.41399 -5.04971 19461 ft 334 kts 252°
2026-04-21 07:14 54.40395 -5.08503 19044 ft 327 kts 228°
2026-04-21 07:14 54.38725 -5.11059 18622 ft 322 kts 211°
2026-04-21 07:14 54.36852 -5.13150 18145 ft 321 kts 209°
2026-04-21 07:15 54.34967 -5.15193 17671 ft 321 kts 209°
2026-04-21 07:15 54.33112 -5.17342 17215 ft 323 kts 219°
2026-04-21 07:15 54.31599 -5.20226 16774 ft 325 kts 228°
2026-04-21 07:15 54.30195 -5.23264 16321 ft 325 kts 229°
2026-04-21 07:16 54.28801 -5.26313 15883 ft 325 kts 229°
2026-04-21 07:16 54.27412 -5.29356 15449 ft 324 kts 229°
2026-04-21 07:16 54.26023 -5.32403 15024 ft 324 kts 229°
2026-04-21 07:16 54.24657 -5.35405 14607 ft 323 kts 229°
2026-04-21 07:17 54.23277 -5.38433 14187 ft 323 kts 229°
2026-04-21 07:17 54.21903 -5.41472 13718 ft 323 kts 232°
2026-04-21 07:17 54.20891 -5.44912 13250 ft 325 kts 248°
2026-04-21 07:17 54.20140 -5.48534 12818 ft 324 kts 249°
2026-04-21 07:18 54.19408 -5.52153 12428 ft 321 kts 249°
2026-04-21 07:18 54.18681 -5.55745 12033 ft 319 kts 249°
2026-04-21 07:18 54.17950 -5.59325 11649 ft 317 kts 249°
2026-04-21 07:18 54.17225 -5.62866 11312 ft 314 kts 249°
2026-04-21 07:19 54.16511 -5.66345 11054 ft 308 kts 249°
2026-04-21 07:19 54.15811 -5.69747 10809 ft 303 kts 249°
2026-04-21 07:19 54.15110 -5.73139 10561 ft 300 kts 249°
2026-04-21 07:19 54.14414 -5.76495 10192 ft 300 kts 249°
2026-04-21 07:20 54.13867 -5.79923 9780 ft 301 kts 265°
2026-04-21 07:20 54.13989 -5.83481 9378 ft 301 kts 277°
2026-04-21 07:20 54.14435 -5.86950 8947 ft 300 kts 295°
2026-04-21 07:20 54.15524 -5.89951 8610 ft 296 kts 311°
2026-04-21 07:21 54.17008 -5.92343 8271 ft 292 kts 326°
2026-04-21 07:21 54.18645 -5.94274 7935 ft 288 kts 329°
2026-04-21 07:21 54.19772 -5.95528 7712 ft 287 kts 330°
2026-04-21 07:21 54.21993 -5.97971 7270 ft 285 kts 332°
2026-04-21 07:22 54.23799 -5.99260 6949 ft 279 kts 345°
2026-04-21 07:22 54.25646 -6.00306 6553 ft 280 kts 345°
2026-04-21 07:22 54.27487 -6.01352 6213 ft 276 kts 345°
2026-04-21 07:22 54.29302 -6.02384 5572 ft 274 kts 345°
2026-04-21 07:23 54.30521 -6.03075 5184 ft 272 kts 345°
2026-04-21 07:23 54.32304 -6.04091 4765 ft 270 kts 345°
2026-04-21 07:23 54.34057 -6.05096 4420 ft 269 kts 345°
2026-04-21 07:23 54.35803 -6.06101 4304 ft 258 kts 345°
2026-04-21 07:24 54.37470 -6.07062 4203 ft 247 kts 345°
2026-04-21 07:24 54.39070 -6.07982 4105 ft 237 kts 345°
2026-04-21 07:24 54.40565 -6.08842 4008 ft 216 kts 346°
2026-04-21 07:24 54.42001 -6.09307 3910 ft 204 kts
2026-04-21 07:25 54.43318 -6.08940 3849 ft 182 kts 25°
2026-04-21 07:25 54.44359 -6.08010 3752 ft 158 kts 40°
2026-04-21 07:25 54.45205 -6.07014 3702 ft 139 kts 41°
2026-04-21 07:25 54.45979 -6.06096 3646 ft 132 kts 41°
2026-04-21 07:26 54.46733 -6.05200 3549 ft 131 kts 41°
2026-04-21 07:26 54.47466 -6.04331 3407 ft 129 kts 41°
2026-04-21 07:26 54.48205 -6.03453 3251 ft 129 kts 41°
2026-04-21 07:26 54.48943 -6.02578 3066 ft 130 kts 42°
2026-04-21 07:27 54.49685 -6.01696 2896 ft 129 kts 42°
2026-04-21 07:27 54.50428 -6.00814 2710 ft 129 kts 41°
2026-04-21 07:27 54.51164 -5.99941 2533 ft 128 kts 41°
2026-04-21 07:27 54.51896 -5.99071 2355 ft 127 kts 42°
2026-04-21 07:28 54.52624 -5.98206 2177 ft 128 kts 42°
2026-04-21 07:28 54.53354 -5.97337 1998 ft 127 kts 41°
2026-04-21 07:28 54.54079 -5.96475 1818 ft 127 kts 41°
2026-04-21 07:28 54.54808 -5.95608 1639 ft 127 kts 40°
2026-04-21 07:29 54.55526 -5.94753 1463 ft 125 kts 40°
2026-04-21 07:29 54.56238 -5.93905 1281 ft 124 kts 40°
2026-04-21 07:29 54.56950 -5.93056 1097 ft 125 kts 40°
2026-04-21 07:29 54.57655 -5.92222 889 ft 124 kts 39°
2026-04-21 07:30 54.58363 -5.91363 704 ft 123 kts 40°
2026-04-21 07:30 54.59060 -5.90520 517 ft 124 kts 38°
2026-04-21 07:30 54.59781 -5.89708 441 ft 124 kts 38°
2026-04-21 07:30 54.60483 -5.88835 276 ft 125 kts 38°
2026-04-21 07:31 54.61202 -5.87990 54 ft 124 kts 39°
2026-04-21 07:31 54.61806 -5.87230 22 ft 76 kts 34°
2026-04-21 07:31 54.62060 -5.86950 21 ft 31 kts 33°
2026-04-21 07:31 54.62235 -5.86742 23 ft 30 kts 34°
2026-04-21 07:32 54.62390 -5.86566 23 ft 21 kts 33°
2026-04-21 07:32 54.62480 -5.86515 22 ft 14 kts 61°
2026-04-21 07:32 54.62428 -5.86482 23 ft 13 kts 222°
2026-04-21 07:32 54.62355 -5.86596 23 ft 16 kts 222°
2026-04-21 07:33 54.62253 -5.86722 23 ft 20 kts 213°
2026-04-21 07:33 54.62126 -5.86872 22 ft 25 kts 215°
2026-04-21 07:33 54.61975 -5.87054 21 ft 28 kts 215°
2026-04-21 07:33 54.61886 -5.87162 22 ft 12 kts 212°
2026-04-21 07:34 54.61807 -5.87114 21 ft 15 kts 117°
2026-04-21 07:34 54.61731 -5.86994 22 ft 16 kts 191°
2026-04-21 07:34 54.61629 -5.87104 22 ft 19 kts 216°
2026-04-21 07:34 54.61547 -5.87205 23 ft 15 kts 214°
2026-04-21 07:35 54.61473 -5.87282 24 ft 9 kts 186°
2026-04-21 07:35 54.61445 -5.87241 22 ft 0 kts 121°